TimeCDT,TemperatureF,Dew PointF,Humidity,Sea Level PressureIn,VisibilityMPH,Wind Direction,Wind SpeedMPH,Gust SpeedMPH,PrecipitationIn,Events,Conditions,WindDirDegrees,DateUTC
12:15 AM,44.1,38.7,81,29.46,10.0,WSW,8.1,16.1,N/A,,Overcast,250,2013-11-01 05:15:00
12:35 AM,43.7,38.1,81,29.46,10.0,West,10.4,18.4,N/A,,Mostly Cloudy,260,2013-11-01 05:35:00
12:55 AM,43.3,38.1,82,29.46,10.0,WSW,11.5,19.6,N/A,,Mostly Cloudy,250,2013-11-01 05:55:00
1:15 AM,43.0,38.3,84,29.47,10.0,WSW,10.4,16.1,N/A,,Scattered Clouds,250,2013-11-01 06:15:00
1:35 AM,43.0,38.7,85,29.48,10.0,WSW,10.4,-,N/A,,Mostly Cloudy,240,2013-11-01 06:35:00
1:55 AM,43.3,38.7,84,29.48,10.0,WSW,10.4,-,N/A,,Overcast,250,2013-11-01 06:55:00
2:15 AM,43.7,38.5,82,29.48,10.0,WSW,9.2,17.3,N/A,,Overcast,250,2013-11-01 07:15:00
2:35 AM,44.1,38.3,80,29.48,10.0,WSW,11.5,-,N/A,,Overcast,250,2013-11-01 07:35:00
2:55 AM,44.2,38.5,80,29.48,10.0,WSW,12.7,-,N/A,,Overcast,250,2013-11-01 07:55:00
3:15 AM,44.6,37.8,77,29.47,10.0,WSW,11.5,16.1,N/A,,Overcast,250,2013-11-01 08:15:00
3:35 AM,44.6,38.5,79,29.48,10.0,WSW,10.4,16.1,N/A,,Overcast,240,2013-11-01 08:35:00
3:55 AM,44.6,38.7,80,29.48,10.0,WSW,9.2,-,N/A,,Overcast,250,2013-11-01 08:55:00
4:15 AM,44.6,39.2,81,29.49,10.0,WSW,11.5,-,N/A,,Overcast,240,2013-11-01 09:15:00
4:35 AM,44.8,39.2,81,29.49,10.0,WSW,9.2,-,N/A,,Overcast,240,2013-11-01 09:35:00
4:55 AM,44.8,39.7,82,29.50,10.0,WSW,11.5,19.6,N/A,,Overcast,250,2013-11-01 09:55:00
5:15 AM,44.8,39.4,81,29.50,10.0,WSW,12.7,-,N/A,,Overcast,250,2013-11-01 10:15:00
5:35 AM,44.8,39.4,81,29.51,10.0,WSW,11.5,17.3,N/A,,Overcast,250,2013-11-01 10:35:00
5:55 AM,44.8,39.2,81,29.52,10.0,WSW,12.7,18.4,N/A,,Overcast,240,2013-11-01 10:55:00
6:15 AM,44.8,39.2,81,29.54,10.0,West,6.9,-,N/A,,Overcast,260,2013-11-01 11:15:00
6:35 AM,44.6,39.2,81,29.54,10.0,West,6.9,-,N/A,,Overcast,270,2013-11-01 11:35:00
6:55 AM,44.6,39.4,82,29.55,10.0,WSW,8.1,-,N/A,,Overcast,250,2013-11-01 11:55:00
7:15 AM,44.6,39.2,81,29.56,10.0,WSW,11.5,16.1,N/A,,Overcast,250,2013-11-01 12:15:00
7:35 AM,44.8,38.8,80,29.56,10.0,West,6.9,-,N/A,,Overcast,260,2013-11-01 12:35:00
7:55 AM,44.8,38.7,79,29.57,10.0,WSW,10.4,-,N/A,,Overcast,250,2013-11-01 12:55:00
8:15 AM,44.8,38.8,80,29.57,10.0,WSW,10.4,-,N/A,,Overcast,250,2013-11-01 13:15:00
8:35 AM,44.8,38.8,80,29.58,10.0,WSW,9.2,-,N/A,,Overcast,250,2013-11-01 13:35:00
8:55 AM,45.0,39.2,80,29.58,10.0,West,9.2,-,N/A,,Overcast,260,2013-11-01 13:55:00
9:15 AM,45.3,39.4,80,29.58,10.0,West,8.1,16.1,N/A,,Overcast,270,2013-11-01 14:15:00
9:35 AM,45.3,39.4,80,29.59,10.0,West,8.1,-,N/A,,Overcast,280,2013-11-01 14:35:00
9:55 AM,45.7,39.2,78,29.59,10.0,West,10.4,-,N/A,,Overcast,270,2013-11-01 14:55:00
10:15 AM,45.7,39.4,79,29.60,10.0,West,5.8,-,N/A,,Overcast,280,2013-11-01 15:15:00
10:35 AM,45.7,39.4,79,29.61,10.0,West,6.9,-,N/A,,Overcast,270,2013-11-01 15:35:00
10:55 AM,45.9,39.4,78,29.61,10.0,West,6.9,-,N/A,,Overcast,260,2013-11-01 15:55:00
11:15 AM,46.0,39.4,78,29.62,10.0,West,9.2,-,N/A,,Overcast,280,2013-11-01 16:15:00
11:35 AM,46.4,39.7,78,29.62,10.0,West,10.4,-,N/A,,Overcast,270,2013-11-01 16:35:00
11:55 AM,46.4,39.7,78,29.63,10.0,West,6.9,-,N/A,,Overcast,270,2013-11-01 16:55:00
12:15 PM,46.6,39.9,78,29.63,10.0,West,6.9,-,N/A,,Overcast,270,2013-11-01 17:15:00
12:35 PM,47.3,40.1,76,29.63,10.0,West,6.9,-,N/A,,Overcast,270,2013-11-01 17:35:00
12:55 PM,47.7,40.1,75,29.64,10.0,West,6.9,-,N/A,,Overcast,280,2013-11-01 17:55:00
1:15 PM,47.8,40.3,75,29.63,10.0,West,6.9,-,N/A,,Overcast,260,2013-11-01 18:15:00
1:35 PM,48.0,40.3,75,29.64,10.0,West,6.9,-,N/A,,Overcast,270,2013-11-01 18:35:00
1:55 PM,48.6,40.3,73,29.64,10.0,West,10.4,-,N/A,,Overcast,270,2013-11-01 18:55:00
2:15 PM,48.7,40.8,74,29.64,10.0,West,11.5,-,N/A,,Light Drizzle,280,2013-11-01 19:15:00
2:35 PM,49.1,41.2,74,29.65,10.0,West,11.5,16.1,N/A,,Light Drizzle,270,2013-11-01 19:35:00
2:55 PM,49.1,41.5,75,29.65,10.0,West,9.2,-,N/A,Rain,Light Rain,270,2013-11-01 19:55:00
3:15 PM,48.7,41.5,76,29.66,10.0,West,8.1,-,N/A,Rain,Rain,260,2013-11-01 20:15:00
4:55 PM,48.6,41.9,78,29.68,10.0,West,9.2,16.1,N/A,,Overcast,260,2013-11-01 21:55:00
5:15 PM,48.6,41.7,77,29.69,10.0,WSW,8.1,-,N/A,,Overcast,250,2013-11-01 22:15:00
5:35 PM,48.2,40.6,75,29.70,10.0,West,10.4,-,N/A,,Overcast,260,2013-11-01 22:35:00
5:55 PM,48.2,40.6,75,29.70,10.0,WSW,5.8,-,N/A,,Overcast,250,2013-11-01 22:55:00
6:15 PM,47.8,40.6,76,29.71,10.0,West,6.9,-,N/A,,Overcast,260,2013-11-01 23:15:00
6:35 PM,47.7,40.5,76,29.71,10.0,WSW,5.8,-,N/A,,Overcast,240,2013-11-01 23:35:00
6:55 PM,47.1,40.3,77,29.71,10.0,SW,4.6,-,N/A,,Mostly Cloudy,230,2013-11-01 23:55:00
7:15 PM,46.4,40.3,79,29.72,10.0,SW,6.9,-,N/A,,Scattered Clouds,230,2013-11-02 00:15:00
7:35 PM,46.4,40.5,80,29.73,10.0,WSW,5.8,-,N/A,,Mostly Cloudy,240,2013-11-02 00:35:00
7:55 PM,46.4,40.1,79,29.73,10.0,West,3.5,-,N/A,,Mostly Cloudy,260,2013-11-02 00:55:00
8:15 PM,46.2,40.1,79,29.74,10.0,Calm,Calm,-,N/A,,Clear,0,2013-11-02 01:15:00
8:35 PM,46.0,40.3,80,29.74,10.0,Calm,Calm,-,N/A,,Clear,0,2013-11-02 01:35:00
8:55 PM,45.7,40.1,81,29.74,10.0,WSW,3.5,-,N/A,,Mostly Cloudy,250,2013-11-02 01:55:00
9:15 PM,45.1,39.2,80,29.74,10.0,WSW,3.5,-,N/A,,Scattered Clouds,250,2013-11-02 02:15:00
9:35 PM,44.6,39.2,81,29.74,10.0,WSW,3.5,-,N/A,,Scattered Clouds,240,2013-11-02 02:35:00
9:55 PM,43.7,39.4,85,29.75,10.0,SW,3.5,-,N/A,,Clear,230,2013-11-02 02:55:00
10:15 PM,43.3,39.2,85,29.76,10.0,Calm,Calm,-,N/A,,Clear,0,2013-11-02 03:15:00
10:35 PM,40.8,38.5,91,29.76,10.0,Calm,Calm,-,N/A,,Clear,0,2013-11-02 03:35:00
10:55 PM,41.4,38.7,90,29.77,10.0,Calm,Calm,-,N/A,,Scattered Clouds,0,2013-11-02 03:55:00
11:15 PM,39.2,36.7,91,29.77,10.0,Calm,Calm,-,N/A,,Scattered Clouds,0,2013-11-02 04:15:00
11:35 PM,37.6,36.5,96,29.77,5.0,Calm,Calm,-,N/A,,Clear,0,2013-11-02 04:35:00
11:55 PM,37.4,36.5,97,29.77,5.0,Calm,Calm,-,N/A,,Clear,0,2013-11-02 04:55:00